This is the latest recevied weather packets stored in our database for station/object IK1PCD-11. If no packets are shown the sender has not sent any weather packets the latest 1 day(s).
| Time | Temp. | Humidity | Pressure | Rain* | Wind** | Luminosity | Snow |
|---|---|---|---|---|---|---|---|
| 1778082193 | 11.67° C | 73% | 1009.7 hPa | - | - | - | - |
| 1778081293 | 11.11° C | 73% | 1009.7 hPa | - | - | - | - |
| 1778074991 | 12.22° C | 77% | 1009.9 hPa | - | - | - | - |
| 1778074091 | 11.11° C | 79% | 1010 hPa | - | - | - | - |
| 1778073191 | 11.11° C | 83% | 1009.9 hPa | - | - | - | - |
| 1778072291 | 10.56° C | 84% | 1010 hPa | - | - | - | - |
| 1778071391 | 11.11° C | 84% | 1010 hPa | - | - | - | - |
| 1778065992 | 8.89° C | 100% | 1009.9 hPa | - | - | - | - |
| 1778065092 | 8.89° C | 100% | 1009.7 hPa | - | - | - | - |
| 1778064192 | 9.44° C | 100% | 1009.7 hPa | - | - | - | - |
| 1778063292 | 9.44° C | 100% | 1009.6 hPa | - | - | - | - |
| 1778062392 | 9.44° C | 100% | 1009.5 hPa | - | - | - | - |
| 1778058791 | 8.89° C | 100% | 1009 hPa | - | - | - | - |
| 1778057891 | 8.33° C | 100% | 1008.8 hPa | - | - | - | - |
| 1778056991 | 8.33° C | 100% | 1008.8 hPa | - | - | - | - |
| 1778054291 | 9.44° C | 100% | 1008.1 hPa | - | - | - | - |
| 1778053391 | 8.89° C | 100% | 1008.2 hPa | - | - | - | - |
| 1778052491 | 8.33° C | 100% | 1008.4 hPa | - | - | - | - |
| 1778051591 | 8.89° C | 100% | 1008.2 hPa | - | - | - | - |
| 1778048889 | 8.33° C | 100% | 1008.5 hPa | - | - | - | - |
| 1778047991 | 8.33° C | 100% | 1008.7 hPa | - | - | - | - |
| 1778047091 | 7.78° C | 100% | 1008.7 hPa | - | - | - | - |
| 1778046191 | 7.78° C | 100% | 1008.7 hPa | - | - | - | - |
| 1778045291 | 7.78° C | 100% | 1008.9 hPa | - | - | - | - |
| 1778039890 | 7.22° C | 100% | 1009.7 hPa | - | - | - | - |
* Rain since midnight (hover to see other rain measurements)
** Current wind speed in m/s (hover to see current wind gust speed)